www.pogodaiklimat.ru

Погода и климат >> Архив погоды >> Россия >> Волгоградская область >> Калач-на-Дону


ПОГОДА в Калаче-на-Дону

  • Прогноз погоды в Калаче-на-Дону
  • Монитор погоды в Калаче-на-Дону
  • Климат города

АРХИВ ПОГОДЫ в Калаче-на-Дону

Время (UTC), дата Ветер
(напр.,м/с)
 
Видим.   Явления Облачность Т
(С)
Тd
(С)
f
(%)
Тe
(С)
Тes
(С)
Комфортность P
(гПа)
Po
(гПа)
Тmin
(С)
Tmax
(С)
R
(мм)
R24
(мм)
S
(см)
09 10.12 Ю 1 20 км 10/0
[Ac und]
+4.2 +2.1 86 +3 +4 1020.8 1016.0
12 10.12 ЮВ 2 20 км ясно +7.0 +1.3 67 +5 +6 1019.7 1015.0
15 10.12 штиль 0 10 км ясно +1.1 -0.9 86 0 0 1019.9 1015.1 +7.1
18 10.12 ЮВ 2 10 км ясно +1.4 -0.6 87 -2 -2 1019.2 1014.4
21 10.12 Ю 4 4000 м дымка 10/10 300 м
[St]
+1.6 +0.6 93 -4 -4 1019.6 1014.8
00 11.12 Ю 3
{11}
4000 м дымка 10/10 300 м
[St]
+1.3 +0.1 92 -3 -3 1018.3 1013.5
03 11.12 Ю 4
{10}
4000 м дымка 10/10 300 м
[St]
+1.9 +0.8 92 -3 -3 1019.0 1014.2 -0.3
06 11.12 Ю 3 20 км в посл. час дождь 10/10 600 м
[Sc]
+3.3 +2.2 92 -1 -1 1020.6 1015.8
09 11.12 З 4
{10}
20 км {дождь} 6/4
[Sc Ac trans]
+3.6 -1.8 68 -1 0 1022.7 1017.9
12 11.12 ЮЗ 1 20 км 8/5 600 м
[Cb cap Ac trans]
+3.7 -1.7 68 +3 +3 1023.2 1018.4
15 11.12 ЮЗ 2 10 км 6/0
[Ac trans]
+1.4 -2.1 77 -2 -2 1025.5 1020.7 +4.0 1
18 11.12 Ю 1 10 км 10/10 600 м
[Sc]
+0.2 -1.9 86 -2 -2 1026.1 1021.2
21 11.12 ЮЗ 3 10 км 10/10 600 м
[Sc]
+2.0 -2.0 75 -2 -2 1025.8 1021.0
00 12.12 ЮЗ 4 10 км 10/10 600 м
[Sc]
+2.0 -1.4 78 -3 -3 1025.0 1020.2
03 12.12 Ю 3 10 км 10/10 600 м
[Sc]
+2.4 -0.7 80 -2 -2 1024.6 1019.8 -0.4
06 12.12 Ю 3 10 км слабый дождь 10/0 300 м
[As op]
+2.1 +1.0 92 -2 -2 1024.4 1019.6
09 12.12 Ю 3 10 км слабый дождь 10/0 300 м
[As op]
+4.1 +3.1 93 0 +1 1023.6 1018.8
12 12.12 ЮЗ 3 20 км {дождь} 10/10 600 м
[Sc]
+5.0 +3.5 90 +1 +1 1022.5 1017.8
15 12.12 Ю 3 10 км слабый дождь 10/0 300 м
[As op]
+4.9 +4.0 94 +1 +1 1022.7 1017.9 +5.1 5
18 12.12 ЮЗ 4 10 км {дождь} 10/10 600 м
[Sc]
+5.1 +3.3 88 +1 +1 1021.9 1017.1
21 12.12 Ю 3 10 км 10/10 600 м
[Sc]
+5.2 +3.2 87 +2 +2 1021.4 1016.6
00 13.12 ЮЗ 5 10 км 8/8 600 м
[Cb cap]
+6.5 +3.3 80 +2 +2 1020.9 1016.2
03 13.12 ЮЗ 4 10 км 3/0
[Ac trans]
+5.0 +2.3 83 +1 +1 1020.6 1015.8 +4.9 0.6
06 13.12 ЮВ 2 20 км 10/10 600 м
[Sc]
+3.9 +2.1 88 +1 +1 1021.8 1017.0 +3.9
09 13.12 Ю 2 20 км 10/10 600 м
[Sc]
+6.6 +3.0 78 +4 +4 1021.1 1016.4
12 13.12 Ю 2 20 км 10/10 600 м
[Sc]
+6.5 +3.5 81 +4 +4 1020.8 1016.0
15 13.12 ЮВ 2 10 км 10/10 600 м
[Sc]
+5.3 +3.9 91 +3 +3 1020.8 1016.1 +7.1
18 13.12 Ю 4 10 км 10/10 600 м
[Sc]
+6.1 +1.9 74 +2 +2 1021.2 1016.5
21 13.12 Ю 3 10 км 4/4 600 м
[Sc]
+4.2 +2.5 89 0 0 1021.7 1016.9
00 14.12 ЮВ 1 10 км 6/5 600 м
[Sc Ac trans]
+2.9 +1.9 93 +1 +1 1021.9 1017.1
03 14.12 Ю 4 10 км 8/8 600 м
[Sc]
+3.6 +2.0 89 -1 -1 1022.4 1017.6 +2.9
06 14.12 Ю 4 20 км 10/10 600 м
[Sc]
+4.5 +2.7 88 0 0 1022.5 1017.7
09 14.12 Ю 5-10
{10}
20 км 10/10 600 м
[Sc]
+4.8 +2.8 87 0 0 1021.5 1016.7
12 14.12 Ю 4
{10}
10 км слабая морось 10/10 300 м
[St]
+4.5 +2.8 89 0 0 1021.4 1016.6
15 14.12 Ю 5
{11}
10 км {морось} 10/10 600 м
[Sc]
+3.9 +1.7 86 -1 -1 1021.7 1016.9 +5.0 0.0
18 14.12 Ю 5-10
{11}
10 км {морось} 10/10 600 м
[Sc]
+2.0 +0.5 90 -4 -4 1021.4 1016.6
21 14.12 Ю 5
{10}
10 км 10/10 600 м
[Sc]
+1.1 -1.0 86 -5 -5 1021.5 1016.7
00 15.12 Ю 5
{11}
10 км 10/10 600 м
[Sc]
-0.5 -1.8 91 -7 -7 1022.4 1017.5
03 15.12 Ю 4
{11}
10 км 10/10 600 м
[Sc]
-0.8 -2.1 91 -7 -7 1021.6 1016.8 -0.9
06 15.12 ЮВ 4
{10}
20 км 10/10 600 м
[Sc]
-0.3 -1.7 90 -6 -6 1022.9 1018.0
09 15.12 Ю 3 4000 м слабая морось 10/10 300 м
[St]
+0.2 -0.9 92 -5 -5 1022.4 1017.6
12 15.12 Ю 3
{11}
4000 м слабая морось 10/10 300 м
[St]
+0.4 -0.6 93 -4 -4 1022.1 1017.3
15 15.12 Ю 4 4000 м в посл. час морось 10/10 300 м
[St]
+0.8 -0.3 92 -5 -5 1022.2 1017.4 +0.8 0.5
18 15.12 Ю 4 4000 м дымка {морось} 10/10 300 м
[St]
+1.4 +0.4 93 -4 -4 1022.7 1017.9
21 15.12 Ю 4 4000 м слабый дождь 10/10 300 м
[Frnb Ns]
+1.7 +0.8 94 -4 -4 1022.6 1017.8
00 16.12 ЮВ 3 4000 м дымка {дождь} 10/10 300 м
[St]
+1.6 +0.7 94 -3 -3 1023.8 1019.0
03 16.12 ЮВ 3 4000 м слабая морось 10/10 300 м
[St]
+1.4 +0.7 95 -3 -3 1023.7 1018.9 +0.8 0.5
06 16.12 ЮВ 2 4000 м дымка {морось} 10/10 300 м
[St]
+1.6 +0.8 94 -2 -2 1024.5 1019.7
09 16.12 Ю 2 20 км 10/10 600 м
[Sc]
+3.0 +1.7 91 -0 -0 1024.7 1020.0
12 16.12 ЮВ 4 4000 м дымка 10/10 300 м
[St]
+2.0 +1.2 94 -3 -3 1025.1 1020.3
15 16.12 Ю 3 2000 м дымка 10/10 300 м
[St]
+1.7 +1.1 96 -3 -3 1026.3 1021.5 +3.2 0.0
18 16.12 ЮВ 4 1000 м дымка 10/10 300 м
[St]
+1.5 +0.9 96 -4 -4 1026.3 1021.5
21 16.12 ЮВ 5 1000 м дымка 10/10 300 м
[St]
+1.5 +1.0 96 -4 -4 1025.8 1021.0
00 17.12 ЮВ 5-10
{10}
4000 м дымка 10/10 300 м
[Sc]
+2.1 +1.1 93 -4 -4 1025.6 1020.8
03 17.12 ЮВ 4
{10}
10 км 10/10 600 м
[Sc]
+1.2 +0.1 92 -4 -4 1025.5 1020.7 +1.1
06 17.12 Ю 5-10
{11}
4000 м слабая морось 10/10 300 м
[St]
+1.7 +0.7 93 -4 -4 1026.2 1021.4

 

Местоположение метеостанции Калач-на-Дону (Волгоградская область, Россия): широта 48.68 долгота 43.48 высота над уровнем моря 38 м.

В архиве по умолчанию представлена погода в Калаче-на-Дону за последнюю неделю. Архивные данные за месяц целиком и за предыдущие месяцы, начиная с января 2011 года, Вы можете получить, выбрав интересующий диапазон дат из раскрывающегося списка и нажав кнопку "Ввод!".

Внимание! Время в таблицах - всемирное. Для получения местного времени необходимо прибавить поправку, которая в Калаче-на-Дону равна 3 ч.

Смотрите также архив погоды в соседних городах и на ближайших метеорологических станциях:

Погода в Нижнем Чире (Волгоградская область, Россия) (47 км)
Погода в Волгограде (Волгоградская область, Россия) (66 км)
Погода в Волгограде город (Волгоградская область, Россия) (71 км)
Погода в Иловле (Волгоградская область, Россия) (79 км)
Погода в Серафимовиче (Волгоградская область, Россия) (113 км)
Погода в Котельниково (Волгоградская область, Россия) (119 км)
Погода в Малых Дербетах (Калмыкия, Россия) (123 км)
Погода в Морозовске (Ростовская область, Россия) (124 км)
Погода в Фролове (Волгоградская область, Россия) (125 км)
Погода в Боковской (Ростовская область, Россия) (135 км)

Пояснения к столбцам:

Ветер - указаны скорость ветра в м/с - средняя за 10 мин, порывы в срок и между сроками (в фигурных скобках) и направление, откуда дует ветер: С - северный, СВ - северо-восточный, В - восточный, ЮВ - юго-восточный, Ю - южный, ЮЗ - юго-западный, З - западный, СЗ - северо-западный.
Видимость - горизонтальная дальность видимости в метрах или километрах. При видимости от 1 до 10 км при отсутствии осадков обычно наблюдается дымка, при ухудшении видимости до 1 км и менее - туман. В сухую погоду видимость может ухудшаться дымом, пылью или мглою.
Явления - указаны атмосферные явления, наблюдавшиеся в срок или в последний час перед сроком; фигурными скобками обозначены явления, наблюдавшиеся между сроками (за 1-3 часа до срока); квадратными скобками обозначены град или гололедные отложения с указанием их диаметра в мм.
Облачность - указаны через наклонную черту общая и нижняя облачность в баллах и высота нижней границы облаков в метрах; квадратными скобками обозначены формы облаков: Ci - перистые, Cs - перисто-слоистые, Cc - перисто-кучевые, Ac - высококучевые, As - высокослоистые, Sc - слоисто-кучевые, Ns - слоисто-дождевые, Cu - кучевые, Cb - кучево-дождевые. Подробнее классификацию облаков см. в Атласе облаков (PDF).
T - Температура воздуха - температура, измеренная на высоте 2 м над землей.
Td - Температура точки росы - температура, при понижении до которой содержащийся в воздухе водяной пар достигнет насыщения.
f - Относительная влажность воздуха - влажноcть воздуха, измеренная на высоте 2 м над землей.
Te - Эффективная температура - температура, которую ощущает одетый по сезону человек в тени. Характеристика душности погоды. При расчете учитывается влияние влажности воздуха и скорости ветра на теплоощущения человека.
Tes - Эффективная температура на солнце - температура, которую ощущает человек, с поправкой на солнечный нагрев. Характеристика знойности погоды. Зависит от высоты солнца над горизонтом, облачности и скорости ветра. Ночью, в пасмурную погоду, а также при ветре 12 м/с и более поправка равна нулю.
P - Атмосферное давление - приведенное к уровню моря атмосферное давление.
Po - Атмосферное давление - измеренное на уровне метеостанции атмосферное давление.
Tmin - Минимальная температура - минимум температуры воздуха на высоте 2 м над землей.
Tmax - Максимальная температура - максимум температуры воздуха на высоте 2 м над землей.
R - Количество осадков - Количество выпавших осадков за период времени, мм. При наведении курсора мыши на число - период времени, за который выпало указанное количество осадков.
R24 - Количество осадков - Количество выпавших осадков за 24 часа, мм.
S - Снежный покров - Высота снежного покрова, см. При наведении курсора мыши на число - состояние снежного покрова и степень покрытия местности в баллах.